Haines, AK

6:56 PM AKDT on September 29, 2016 (GMT -0800)
Haines

Weather History for PAHN - December, 2013

Change the Weather History Date:

Friday, December 6, 2013

  Actual Average Record
Temperature  
Mean Temperature 16 °F -  
Max Temperature 21 °F 31 °F 43 °F (2000)
Min Temperature 12 °F 24 °F -9 °F (1975)
Degree Days  
Heating Degree Days 48    
Moisture  
Dew Point 10 °F    
Average Humidity 77    
Maximum Humidity 88    
Minimum Humidity 60    
Precipitation  
Precipitation 0.00 in - - ()
Sea Level Pressure  
Sea Level Pressure 30.62 in    
Wind  
Wind Speed 8 mph (WNW)    
Max Wind Speed 14 mph    
Max Gust Speed 24 mph    
Visibility 10 miles    
Events      
Averages and records for this station are not official NWS values.
T = Trace of Precipitation, MM = Missing Value Source: NWS Daily Summary

Daily Weather History Graph

Daily Weather History Graph

Search for Another Location

Airport or City:

Trip Planner

Search our weather history database for the weather conditions in past years. The results will help you decide how hot, cold, wet, or windy it might be!

Date:

Astronomy

Dec. 06, 2013 Rise Set
Actual Time 8:40 AM AKST 3:05 PM AKST
Civil Twilight 7:47 AM AKST 3:59 PM AKST
Nautical Twilight 6:52 AM AKST 4:53 PM AKST
Astronomical Twilight 6:03 AM AKST 5:43 PM AKST
Moon 11:10 AM AKST (12/6) 8:32 PM AKST (12/6)
Length of Visible Light 8h 11m
Length of Day
6h 24m
Waxing Crescent, 20% of the Moon is Illuminated
Dec 6
Waxing Crescent
Dec 9
First Quarter
Dec 17
Full
Dec 25
Last Quarter
Jan 1
New

Hourly Weather History & Observations

Time (AKST) Temp. Windchill Dew Point Humidity Pressure Visibility Wind Dir Wind Speed Gust Speed Precip Events Conditions
12:54 AM 14.0 °F 2.0 °F 9.0 °F 80% 30.68 in 10.0 mi WNW 9.2 mph - N/A   Clear
1:54 AM 21.0 °F 8.1 °F 9.0 °F 60% 30.67 in 10.0 mi NW 13.8 mph 24.2 mph N/A   Clear
2:54 AM 12.0 °F 0.5 °F 7.0 °F 80% 30.67 in 10.0 mi WNW 8.1 mph - N/A   Clear
3:54 AM 15.1 °F 3.3 °F 8.1 °F 74% 30.67 in 10.0 mi WNW 9.2 mph - N/A   Clear
4:54 AM 16.0 °F 5.3 °F 8.1 °F 71% 30.66 in 10.0 mi NW 8.1 mph 16.1 mph N/A   Clear
5:54 AM 14.0 °F 2.0 °F 8.1 °F 77% 30.66 in 10.0 mi NW 9.2 mph - N/A   Clear
6:54 AM 12.0 °F 1.5 °F 7.0 °F 80% 30.66 in 10.0 mi WNW 6.9 mph - N/A   Clear
7:54 AM 15.1 °F 2.5 °F 8.1 °F 74% 30.64 in 10.0 mi WNW 10.4 mph - N/A   Clear
8:54 AM 12.0 °F 1.5 °F 7.0 °F 80% 30.65 in 10.0 mi WNW 6.9 mph - N/A   Clear
9:54 AM 14.0 °F 3.9 °F 8.1 °F 77% 30.65 in 10.0 mi WNW 6.9 mph - N/A   Clear
10:54 AM 14.0 °F 5.1 °F 8.1 °F 77% 30.65 in 10.0 mi WNW 5.8 mph - N/A   Clear
11:54 AM 15.1 °F 4.2 °F 8.1 °F 74% 30.64 in 10.0 mi West 8.1 mph - N/A   Clear
12:54 PM 17.1 °F 10.0 °F 10.0 °F 74% 30.63 in 10.0 mi WNW 4.6 mph - N/A   Mostly Cloudy
1:54 PM 18.0 °F 12.7 °F 10.9 °F 74% 30.63 in 10.0 mi WNW 3.5 mph - N/A   Overcast
2:54 PM 19.0 °F 10.0 °F 12.0 °F 74% 30.61 in 10.0 mi WNW 6.9 mph - N/A   Overcast
3:54 PM 18.0 °F 12.7 °F 12.9 °F 81% 30.61 in 10.0 mi WNW 3.5 mph - N/A   Overcast
4:54 PM 19.0 °F 11.1 °F 12.9 °F 77% 30.59 in 10.0 mi WNW 5.8 mph - N/A   Mostly Cloudy
5:54 PM 18.0 °F 9.8 °F 12.9 °F 81% 30.58 in 10.0 mi WNW 5.8 mph - N/A   Mostly Cloudy
6:54 PM 16.0 °F 7.4 °F 12.9 °F 88% 30.58 in 10.0 mi WNW 5.8 mph - N/A   Partly Cloudy
7:54 PM 18.0 °F 6.1 °F 12.9 °F 81% 30.57 in 10.0 mi West 10.4 mph - N/A   Clear
8:54 PM 17.1 °F 7.6 °F 12.9 °F 84% 30.57 in 10.0 mi WNW 6.9 mph - N/A   Partly Cloudy
9:54 PM 18.0 °F - 12.9 °F 81% 30.55 in 10.0 mi Calm Calm - N/A   Scattered Clouds
10:54 PM 19.9 °F 8.6 °F 12.0 °F 71% 30.55 in 10.0 mi WNW 10.4 mph - N/A   Overcast
11:54 PM 19.9 °F 10.1 °F 12.0 °F 71% 30.53 in 10.0 mi WNW 8.1 mph - N/A   Partly Cloudy